Mount Pleasant, TN

9:53 AM CST on December 05, 2016 (GMT -0600)
Maury County

Weather History for KMRC - March, 2014

Change the Weather History Date:

Sunday, March 2, 2014

  Actual Average (KBNA) Record (KBNA)
Temperature  
Mean Temperature 48 °F 46 °F  
Max Temperature 64 °F 56 °F 81 °F (2012)
Min Temperature 33 °F 35 °F 9 °F (1980)
Degree Days  
Heating Degree Days 16    
Month to date heating degree days  
Since 1 July heating degree days  
Cooling Degree Days 0    
Month to date cooling degree days  
Year to date cooling degree days  
Moisture  
Dew Point 46 °F    
Average Humidity 94    
Maximum Humidity 100    
Minimum Humidity 72    
Precipitation  
Precipitation 0.00 in 0.13 in 2.94 in (1997)
Month to date precipitation 0.26  
Year to date precipitation 7.95  
Sea Level Pressure  
Sea Level Pressure 30.03 in    
Wind  
Wind Speed 10 mph (WNW)    
Max Wind Speed 20 mph    
Max Gust Speed -    
Visibility 7 miles    
Events      
T = Trace of Precipitation, MM = Missing Value Source: NWS Daily Summary

Daily Weather History Graph

Daily Weather History Graph

Search for Another Location

Airport or City:

Trip Planner

Search our weather history database for the weather conditions in past years. The results will help you decide how hot, cold, wet, or windy it might be!

Date:

Astronomy

Mar. 02, 2014 Rise Set
Actual Time 6:17 AM CST 5:44 PM CST
Civil Twilight 5:51 AM CST 6:10 PM CST
Nautical Twilight 5:22 AM CST 6:40 PM CST
Astronomical Twilight 4:52 AM CST 7:09 PM CST
Moon 6:52 AM CST (3/2) 7:35 PM CST (3/2)
Length of Visible Light 12h 18m
Length of Day
11h 27m
Waxing Crescent, 3% of the Moon is Illuminated
Mar 2
Waxing Crescent
Mar 8
First Quarter
Mar 16
Full
Mar 23
Last Quarter
Mar 30
New

Hourly Weather History & Observations

Time (CST) Temp. Windchill Dew Point Humidity Pressure Visibility Wind Dir Wind Speed Gust Speed Precip Events Conditions
12:35 AM 57.2 °F - 48.2 °F 72% 30.08 in 10.0 mi SSW 5.8 mph - N/A   Overcast
12:55 AM 57.2 °F - 48.2 °F 72% 30.08 in 10.0 mi South 5.8 mph - N/A   Overcast
1:15 AM 57.2 °F - 48.2 °F 72% 30.07 in 10.0 mi SSW 6.9 mph - N/A   Overcast
1:35 AM 57.2 °F - 48.2 °F 72% 30.06 in 10.0 mi SSW 9.2 mph - N/A   Overcast
1:55 AM 57.2 °F - 48.2 °F 72% 30.06 in 10.0 mi South 8.1 mph - N/A   Overcast
2:15 AM 57.2 °F - 50.0 °F 77% 30.05 in 10.0 mi South 9.2 mph - N/A   Mostly Cloudy
2:35 AM 57.2 °F - 51.8 °F 82% 30.04 in 10.0 mi South 10.4 mph - N/A   Overcast
2:55 AM 57.2 °F - 51.8 °F 82% 30.05 in 10.0 mi South 11.5 mph - N/A   Overcast
3:15 AM 57.2 °F - 51.8 °F 82% 30.05 in 10.0 mi South 9.2 mph - N/A   Overcast
3:35 AM 57.2 °F - 51.8 °F 82% 30.04 in 10.0 mi South 8.1 mph - N/A   Mostly Cloudy
3:55 AM 57.2 °F - 53.6 °F 88% 30.04 in 10.0 mi South 12.7 mph - N/A   Scattered Clouds
4:15 AM 57.2 °F - 53.6 °F 88% 30.05 in 10.0 mi South 10.4 mph - N/A   Clear
4:35 AM 57.2 °F - 53.6 °F 88% 30.03 in 10.0 mi South 10.4 mph - N/A   Clear
4:55 AM 57.2 °F - 53.6 °F 88% 30.02 in 10.0 mi South 12.7 mph - N/A   Clear
5:15 AM 57.2 °F - 55.4 °F 94% 30.02 in 10.0 mi South 13.8 mph - N/A   Clear
5:35 AM 57.2 °F - 55.4 °F 94% 30.03 in 10.0 mi SSW 19.6 mph - N/A   Clear
5:55 AM 59.0 °F - 57.2 °F 94% 30.04 in 10.0 mi SW 15.0 mph - N/A   Clear
6:15 AM 57.2 °F - 55.4 °F 94% 30.04 in 10.0 mi SSW 16.1 mph - N/A   Clear
6:35 AM 57.2 °F - 57.2 °F 100% 30.03 in 10.0 mi SSW 12.7 mph - N/A   Clear
6:55 AM 57.2 °F - 57.2 °F 100% 30.04 in 10.0 mi SSW 17.3 mph - N/A   Partly Cloudy
7:15 AM 57.2 °F - 57.2 °F 100% 30.06 in 10.0 mi SW 13.8 mph - N/A   Scattered Clouds
7:35 AM 59.0 °F - 57.2 °F 94% 30.06 in 10.0 mi SSW 12.7 mph - N/A   Mostly Cloudy
7:55 AM 60.8 °F - 59.0 °F 94% 30.07 in 10.0 mi SW 12.7 mph - N/A   Overcast
8:15 AM 60.8 °F - 60.8 °F 100% 30.07 in 10.0 mi SSW 15.0 mph - N/A   Overcast
8:35 AM 62.6 °F - 60.8 °F 94% 30.07 in 10.0 mi SW 12.7 mph - N/A   Overcast
8:55 AM 62.6 °F - 60.8 °F 94% 30.07 in 10.0 mi SSW 15.0 mph - N/A   Overcast
9:15 AM 62.6 °F - 60.8 °F 94% 30.07 in 9.0 mi SW 15.0 mph - N/A   Overcast
9:35 AM 64.4 °F - 62.6 °F 94% 30.06 in 10.0 mi SSW 15.0 mph - N/A   Overcast
9:55 AM 64.4 °F - 62.6 °F 94% 30.06 in 9.0 mi SSW 15.0 mph - N/A   Overcast
10:15 AM 64.4 °F - 62.6 °F 94% 30.05 in 9.0 mi SSW 15.0 mph - N/A   Mostly Cloudy
10:35 AM 64.4 °F - 62.6 °F 94% 30.05 in 10.0 mi SSW 18.4 mph - N/A   Mostly Cloudy
10:55 AM 64.4 °F - 62.6 °F 94% 30.05 in 8.0 mi SSW 13.8 mph - N/A   Overcast
11:15 AM 62.6 °F - 62.6 °F 100% 30.06 in 4.0 mi SW 12.7 mph - N/A   Overcast
11:35 AM 62.6 °F - 60.8 °F 94% 30.07 in 10.0 mi North 12.7 mph - N/A   Overcast
11:55 AM 48.2 °F - 48.2 °F 100% 30.07 in - NNW 6.9 mph - N/A   Unknown
12:15 PM 44.6 °F 40.7 °F 44.6 °F 100% 30.06 in 1.8 mi North 6.9 mph - N/A   Overcast
12:35 PM 42.8 °F 38.6 °F 42.8 °F 100% 30.06 in 1.5 mi NNW 6.9 mph - N/A   Overcast
12:55 PM 42.8 °F 38.0 °F 41.0 °F 93% 30.05 in 1.5 mi NNW 8.1 mph - N/A   Overcast
1:15 PM 41.0 °F 37.1 °F 41.0 °F 100% 30.04 in 1.5 mi NNW 5.8 mph - N/A   Overcast
1:35 PM 39.2 °F 37.0 °F 39.2 °F 100% 30.04 in 2.0 mi NW 3.5 mph - N/A   Overcast
1:55 PM 39.2 °F 35.9 °F 39.2 °F 100% 30.03 in 3.0 mi North 4.6 mph - N/A   Overcast
2:15 PM 39.2 °F 35.9 °F 39.2 °F 100% 30.02 in 3.0 mi NNE 4.6 mph - N/A   Overcast
2:35 PM 39.2 °F 37.0 °F 39.2 °F 100% 30.02 in 4.0 mi North 3.5 mph - N/A   Overcast
2:55 PM 41.0 °F 37.1 °F 39.2 °F 93% 30.02 in 5.0 mi NNW 5.8 mph - N/A   Overcast
3:15 PM 39.2 °F 34.2 °F 39.2 °F 100% 30.03 in 10.0 mi Variable 6.9 mph - N/A   Overcast
3:35 PM 39.2 °F 33.6 °F 39.2 °F 100% 30.02 in 10.0 mi North 8.1 mph - N/A   Overcast
3:55 PM 39.2 °F 33.6 °F 39.2 °F 100% 30.02 in 10.0 mi North 8.1 mph - N/A   Overcast
4:15 PM 39.2 °F 33.0 °F 39.2 °F 100% 30.01 in 10.0 mi North 9.2 mph - N/A   Overcast
4:35 PM 37.4 °F 32.1 °F 37.4 °F 100% 30.01 in 10.0 mi North 6.9 mph - N/A   Overcast
4:55 PM 37.4 °F 30.8 °F 37.4 °F 100% 30.05 in 10.0 mi NNW 9.2 mph - N/A   Overcast
5:15 PM 37.4 °F 32.1 °F 37.4 °F 100% 30.03 in 10.0 mi North 6.9 mph - N/A   Overcast
5:35 PM 37.4 °F 30.3 °F 37.4 °F 100% 30.04 in 10.0 mi North 10.4 mph - N/A   Overcast
5:55 PM 37.4 °F 32.8 °F 35.6 °F 93% 30.02 in 6.0 mi North 5.8 mph - N/A   Overcast
6:15 PM 35.6 °F 28.6 °F 35.6 °F 100% 29.99 in 6.0 mi NE 9.2 mph - N/A   Overcast
6:35 PM 35.6 °F 28.6 °F 35.6 °F 100% 29.98 in 10.0 mi North 9.2 mph - N/A   Overcast
6:55 PM 35.6 °F 28.0 °F 35.6 °F 100% 30.00 in 2.0 mi NNE 10.4 mph - N/A   Overcast
7:15 PM 35.6 °F 28.6 °F 35.6 °F 100% 30.02 in 1.8 mi North 9.2 mph - N/A   Overcast
7:35 PM 35.6 °F 31.7 °F 35.6 °F 100% 30.01 in 4.0 mi NNE 4.6 mph - N/A   Overcast
7:55 PM 35.6 °F 28.6 °F 35.6 °F 100% 30.00 in 2.0 mi NNE 9.2 mph - N/A   Overcast
8:15 PM 33.8 °F 29.6 °F 33.8 °F 100% 30.01 in 1.5 mi NNE 4.6 mph - N/A   Overcast
8:35 PM 33.8 °F 27.7 °F 33.8 °F 100% 30.01 in 1.5 mi NNE 6.9 mph - N/A   Overcast
8:55 PM 33.8 °F 27.0 °F 33.8 °F 100% 30.00 in 1.8 mi NE 8.1 mph - N/A   Overcast
9:15 PM 33.8 °F 27.0 °F 33.8 °F 100% 29.99 in 2.0 mi NNE 8.1 mph - N/A   Overcast
9:35 PM 33.8 °F 27.0 °F 33.8 °F 100% 30.01 in 2.5 mi NNE 8.1 mph - N/A   Overcast
9:55 PM 33.8 °F 25.3 °F 33.8 °F 100% 29.98 in 1.5 mi NE 11.5 mph - N/A   Overcast
10:15 PM 33.8 °F 25.3 °F 33.8 °F 100% 29.99 in 2.0 mi NNE 11.5 mph - N/A   Overcast
10:35 PM 33.8 °F 27.0 °F 33.8 °F 100% 30.00 in 1.8 mi North 8.1 mph - N/A   Overcast
10:55 PM 33.8 °F 29.6 °F 32.0 °F 93% 29.99 in 2.0 mi North 4.6 mph - N/A   Overcast
11:55 PM 33.8 °F 27.7 °F 32.0 °F 93% 29.99 in 2.0 mi North 6.9 mph - N/A   Overcast